This is the latest recevied weather packets stored in our database for station/object KN4DS-3. If no packets are shown the sender has not sent any weather packets the latest 10 day(s).
| Time | Temp. | Humidity | Pressure | Rain* | Wind** | Luminosity | Snow |
|---|---|---|---|---|---|---|---|
| 1777989304 | 19.44° C | 74% | 1017 hPa | 0 mm | - | - | - |
| 1777989004 | 18.89° C | 75% | 1017 hPa | 0 mm | - | - | - |
| 1777988704 | 18.89° C | 76% | 1017 hPa | 0 mm | - | - | - |
| 1777988404 | 18.33° C | 78% | 1016.9 hPa | 0 mm | - | - | - |
| 1777988104 | 18.33° C | 80% | 1017 hPa | 0 mm | - | - | - |
| 1777987804 | 17.78° C | 82% | 1016.9 hPa | 0 mm | - | - | - |
| 1777987504 | 17.22° C | 82% | 1016.8 hPa | 0 mm | - | - | - |
| 1777987204 | 17.22° C | 84% | 1016.9 hPa | 0 mm | - | - | - |
| 1777986904 | 16.67° C | 85% | 1017 hPa | 0 mm | - | - | - |
| 1777986605 | 16.67° C | 86% | 1016.8 hPa | 0 mm | - | - | - |
| 1777986304 | 16.11° C | 87% | 1016.9 hPa | 0 mm | - | - | - |
| 1777986003 | 15.56° C | 89% | 1016.7 hPa | 0 mm | - | - | - |
| 1777985704 | 15° C | 91% | 1016.7 hPa | 0 mm | - | - | - |
| 1777985405 | 14.44° C | 93% | 1016.9 hPa | 0 mm | - | - | - |
| 1777985104 | 13.89° C | 95% | 1016.9 hPa | 0 mm | - | - | - |
| 1777984804 | 13.33° C | 96% | 1017 hPa | 0 mm | - | - | - |
| 1777984505 | 13.33° C | 97% | 1017 hPa | 0 mm | - | - | - |
| 1777984204 | 12.78° C | 97% | 1017 hPa | 0 mm | - | - | - |
| 1777983904 | 12.78° C | 97% | 1016.9 hPa | 0 mm | - | - | - |
| 1777983605 | 12.22° C | 97% | 1016.9 hPa | 0 mm | - | - | - |
| 1777983304 | 11.67° C | 96% | 1016.9 hPa | 0 mm | - | - | - |
| 1777983004 | 11.67° C | 96% | 1016.9 hPa | 0 mm | - | - | - |
| 1777982705 | 11.67° C | 97% | 1016.7 hPa | 0 mm | - | - | - |
| 1777982404 | 11.11° C | 96% | 1016.7 hPa | 0 mm | - | - | - |
| 1777982105 | 11.11° C | 96% | 1016.5 hPa | 0 mm | - | - | - |
* Rain latest hour (hover to see other rain measurements)
** Current wind speed in m/s (hover to see current wind gust speed)